[[{"header":{"parameterUnit":"m.s-1","parameterCategory":1,"la1":30.2991,"la2":30.254,"lo1":-89.0895,"lo2":-89.0444,"dy":0.0017,"dx":0.0017,"nx":28,"ny":28,"refTime":"2024-10-04T21:00:00:Z","depth":0,"parameterNumber":2,"parameterNumberName":"U-component_of_WINDS"},"data":[0,0,0,0,0,0,0,0,0,0,0,0,0,0,0,0,0,0,0,0,0,0,0,0,0,0,0,0,0,0,0,0,0,0,0,0,0,0,0,0,0,0,0,0,0,0,0,0,0,0,0,0,0,0,0,0,0,0,-4.9374,-4.9375,0,-4.9448,-4.9449,-4.945,-4.9397,-4.9395,-4.9393,-4.9391,-4.9463,-4.9467,-4.9471,0,0,0,0,0,0,0,0,0,0,0,0,0,-4.9186,-4.9189,-4.9374,-4.9375,-4.9376,-4.9448,-4.9449,-4.945,-4.9398,-4.9395,-4.9392,-4.939,-4.9462,-4.9467,-4.9472,0,0,0,0,0,0,0,0,0,0,0,0,0,-4.9264,-4.9191,-4.9374,-4.9359,-4.9358,-4.9448,-4.9449,-4.945,-4.9398,-4.9395,-4.9391,-4.9388,-4.946,-4.9466,-4.9472,-4.958,0,0,-4.9491,-4.9494,0,0,0,0,0,0,0,0,-4.926,-4.9271,-4.936,-4.936,-4.9359,-4.941,-4.9409,-4.9494,-4.9399,-4.9383,-4.9391,-4.9387,-4.9448,-4.9455,-4.9477,-4.9584,-4.9587,-4.9492,-4.9496,-4.9498,-4.95,0,0,0,0,0,0,0,-4.9254,-4.9268,-4.9403,-4.9361,-4.9361,-4.9348,-4.9355,-4.9425,-4.9434,-4.9384,-4.9381,-4.939,-4.9447,-4.9471,-4.9478,-4.9588,-4.9492,-4.9497,-4.9501,-4.9503,-4.979,-4.9794,0,0,0,0,0,0,-4.9251,-4.9264,-4.9401,-4.9405,-4.93,-4.9354,-4.9362,-4.9397,-4.9433,-4.9436,-4.9393,-4.9388,-4.9462,-4.9471,-4.948,-4.9611,-4.9498,-4.9504,-4.9507,-4.9786,-4.9791,-4.9795,0,0,0,0,0,0,-4.9247,-4.9263,-4.9398,-4.9334,-4.935,-4.9361,-4.9401,-4.9401,-4.9424,-4.944,-4.9441,-4.9416,-4.946,-4.9472,-4.9557,-4.9613,-4.9507,-4.9512,-4.9782,-4.9788,-4.9793,-4.9873,0,0,0,0,0,0,-4.9242,-4.9262,-4.9304,-4.9335,-4.9353,-4.9474,-4.9404,-4.9405,-4.9435,-4.9429,-4.9462,-4.9464,-4.9458,-4.9548,-4.9563,-4.962,-4.9517,-4.9777,-4.9784,-4.9791,-4.9865,-4.9881,-4.9894,0,0,0,0,0,-4.9235,-4.9322,-4.9306,-4.9323,-4.9406,-4.9477,-4.9487,-4.948,-4.944,-4.9482,-4.9492,-4.9463,-4.9604,-4.9557,-4.9573,-4.9633,-4.9773,-4.9782,-4.9791,-4.9859,-4.9878,-4.9894,0,0,0,0,0,0,-4.9295,-4.9326,-4.9308,-4.9408,-4.9441,-4.9468,-4.952,-4.95,-4.9543,-4.9535,-4.9523,-4.9531,-4.9621,-4.9635,-4.9582,-4.9741,-4.9682,-4.9695,-4.9728,-4.9746,-4.976,-4.9756,-4.9522,0,0,0,0,0,-4.932,-4.9377,-4.94,-4.9485,-4.9503,-4.9509,-4.954,-4.9532,-4.9564,-4.9578,-4.9594,-4.9627,-4.9679,-4.9713,-4.9761,-4.9867,-4.9874,-4.9916,-4.993,-4.9942,-4.9953,-5.0013,-5.0032,-4.9824,-4.9824,-4.9824,0,0,-4.9372,-4.9396,-4.9432,-4.9498,-4.9522,-4.9581,-4.9521,-4.9585,-4.9628,-4.9587,-4.9669,-4.9683,-4.9718,-4.9815,-4.9858,-4.9829,-5.0012,-4.9953,-4.9962,-4.9967,-5.0024,-5.0043,-5.0061,-4.983,-4.9829,-4.9828,0,0,-4.9497,-4.952,-4.9595,-4.9621,-4.966,-4.9664,-4.9682,-4.9713,-4.9722,-4.9804,-4.9775,-4.9826,-4.9916,-4.9943,-4.9968,-5.0107,-5.0082,-5.0123,-5.0198,-5.0256,-5.0273,-5.0287,-5.0339,-5.0357,-5.0134,-5.0134,-5.0134,0,-4.9556,-4.9644,-4.9636,-4.9704,-4.9734,-4.9701,-4.9778,-4.9803,-4.9855,-4.9877,-4.9844,-4.9957,-4.9978,-5.0082,-5.0117,-5.0137,-5.0159,-5.0119,-5.0271,-5.0285,-5.0299,-5.0348,-5.0367,-5.0139,-5.0138,-5.0138,-5.0137,0,-4.9717,-4.9778,-4.9834,-4.9888,-4.9924,-4.9996,-4.9998,-5.0036,-5.0026,-5.0033,-5.0119,-5.0144,-5.0198,-5.0222,-5.021,-5.0325,-5.0306,-5.0273,-5.0214,-5.0324,-5.037,-5.0388,-5.0146,-5.0144,-5.0143,-5.0141,0,0,-4.988,-4.993,-4.9951,-4.9976,-5.0017,-5.0064,-5.0135,-5.019,-5.0224,-5.0261,-5.032,-5.0398,-5.0368,-5.0397,-5.0389,-5.044,-5.0551,-5.04,-5.0401,-5.0429,-5.0681,-5.0708,-5.0729,-5.0534,-5.0538,-5.054,-5.0679,0,-5.0009,-5.0134,-5.0129,-5.0245,-5.0303,-5.0274,-5.0335,-5.0367,-5.0377,-5.0427,-5.0436,-5.0493,-5.0448,-5.0466,-5.0515,-5.0527,-5.0602,-5.0517,-5.059,-5.0593,-5.0584,-5.0753,-5.078,-5.091,-5.0696,-5.0699,-5.0702,0,-5.0176,-5.0222,-5.0344,-5.0379,-5.0403,-5.0459,-5.051,-5.0558,-5.0594,-5.0598,-5.0632,-5.0616,-5.0688,-5.0627,-5.0727,-5.067,-5.07,-5.071,-5.0715,-5.0723,-5.0655,-5.0767,-5.095,-5.0971,-5.0729,-5.0727,-5.0725,0,-5.0286,-5.0378,-5.0464,-5.0485,-5.0528,-5.0568,-5.0587,-5.062,-5.0654,-5.0699,-5.0721,-5.0772,-5.0801,-5.0842,-5.0841,-5.0796,-5.0943,-5.0881,-5.0949,-5.0949,-5.0981,-5.098,-5.1174,-5.0998,-5.0998,-5.0997,-5.0997,0,-5.0431,-5.0508,-5.0514,-5.0567,-5.0653,-5.0647,-5.0731,-5.0746,-5.0776,-5.0832,-5.0808,-5.0861,-5.0856,-5.0909,-5.0908,-5.0993,-5.1005,-5.101,-5.101,-5.1014,-5.1013,-5.1034,-5.1026,-5.1003,-5.1001,-5.1,-5.1,0,-5.0569,-5.0576,-5.0668,-5.0702,-5.0712,-5.0774,-5.0802,-5.0853,-5.0861,-5.0932,-5.0948,-5.0961,-5.1022,-5.1025,-5.1096,-5.1096,-5.1199,-5.1187,-5.1187,-5.1186,-5.1254,-5.1248,-5.147,-5.15,-5.1302,-5.1304,-5.1306,0,-5.0662,-5.0721,-5.0762,-5.0798,-5.0821,-5.0879,-5.0914,-5.0911,-5.0949,-5.0996,-5.1041,-5.1101,-5.1149,-5.1249,-5.1265,-5.1319,-5.131,-5.1384,-5.1317,-5.1321,-5.1313,-5.1311,-5.1317,-5.1397,-5.1399,-5.1401,-5.1402,0,-5.0827,-5.0828,-5.0881,-5.0936,-5.098,-5.1022,-5.1062,-5.1093,-5.1094,-5.1138,-5.1202,-5.1239,-5.1313,-5.1373,-5.1427,-5.1446,-5.1426,-5.1423,-5.1442,-5.1447,-5.1446,-5.145,-5.1224,-5.1418,-5.1416,-5.1415,-5.1414,-5.1414,-5.0946,-5.0998,-5.1036,-5.1096,-5.1126,-5.1165,-5.1215,-5.123,-5.1284,-5.1345,-5.1339,-5.141,-5.1447,-5.1517,-5.1541,-5.1597,-5.1572,-5.1599,-5.1606,-5.1613,-5.1621,-5.1436,-5.1607,-5.1606,-5.1606,-5.1605,-5.1605,0,-5.1112,-5.1136,-5.1191,-5.1249,-5.1297,-5.1274,-5.1317,-5.1358,-5.1422,-5.1458,-5.1507,-5.1581,-5.164,-5.1661,-5.1719,-5.176,-5.1752,-5.1776,-5.1773,-5.1779,-5.1639,-5.1618,-5.1781,-5.1781,-5.1781,-5.1781,-5.1781,-5.1781,-5.1204,-5.1292,-5.1298,-5.1401,-5.1423,-5.1494,-5.1521,-5.1557,-5.1586,-5.1671,-5.1721,-5.1735,-5.1765,-5.1826,-5.1879,-5.1884,-5.1907,-5.1935,-5.1936,-5.1806,-5.1788,-5.1771,-5.1752,-5.194,-5.194,-5.2071,-5.2072,-5.2073]},{"header":{"parameterUnit":"m.s-1","parameterCategory":1,"la1":30.2991,"la2":30.254,"lo1":-89.0895,"lo2":-89.0444,"dy":0.0017,"dx":0.0017,"nx":28,"ny":28,"refTime":"2024-10-04T21:00:00:Z","depth":0,"parameterNumber":3,"parameterNumberName":"V-component_of_WINDS"},"data":[0,0,0,0,0,0,0,0,0,0,0,0,0,0,0,0,0,0,0,0,0,0,0,0,0,0,0,0,0,0,0,0,0,0,0,0,0,0,0,0,0,0,0,0,0,0,0,0,0,0,0,0,0,0,0,0,0,0,-2.0285,-2.0286,0,-2.0408,-2.041,-2.0411,-2.0426,-2.0425,-2.0423,-2.0422,-2.055,-2.0554,-2.0559,0,0,0,0,0,0,0,0,0,0,0,0,0,-2.0061,-2.0065,-2.0285,-2.0286,-2.0288,-2.0408,-2.041,-2.0412,-2.0426,-2.0425,-2.0423,-2.0422,-2.0549,-2.0554,-2.0559,0,0,0,0,0,0,0,0,0,0,0,0,0,-2.0169,-2.0067,-2.0284,-2.0309,-2.0313,-2.0408,-2.041,-2.0412,-2.0426,-2.0425,-2.0423,-2.0421,-2.0547,-2.0553,-2.056,-2.0639,0,0,-2.0581,-2.0584,0,0,0,0,0,0,0,0,-2.0163,-2.0177,-2.0304,-2.0308,-2.0312,-2.04,-2.0378,-2.0488,-2.0427,-2.0383,-2.0422,-2.042,-2.0502,-2.0512,-2.0539,-2.0645,-2.065,-2.0582,-2.0586,-2.0589,-2.0591,0,0,0,0,0,0,0,-2.0155,-2.0172,-2.0334,-2.0306,-2.0311,-2.0315,-2.0328,-2.0399,-2.0451,-2.0387,-2.0388,-2.0403,-2.0503,-2.0533,-2.0542,-2.0652,-2.0581,-2.0587,-2.0592,-2.0594,-2.0828,-2.083,0,0,0,0,0,0,-2.0143,-2.0166,-2.033,-2.0337,-2.0231,-2.032,-2.0335,-2.0373,-2.0451,-2.0461,-2.0404,-2.0403,-2.0522,-2.0534,-2.0547,-2.0644,-2.0589,-2.0595,-2.0599,-2.0826,-2.0828,-2.0831,0,0,0,0,0,0,-2.0138,-2.0158,-2.0325,-2.0252,-2.0273,-2.0326,-2.0369,-2.0377,-2.0406,-2.0464,-2.0473,-2.0425,-2.0521,-2.0537,-2.0616,-2.0649,-2.0598,-2.0604,-2.0823,-2.0827,-2.083,-2.0839,0,0,0,0,0,0,-2.0132,-2.0156,-2.0186,-2.0252,-2.0277,-2.0391,-2.0371,-2.0381,-2.0418,-2.0417,-2.0485,-2.0495,-2.0521,-2.0605,-2.0622,-2.0657,-2.0609,-2.0821,-2.0825,-2.0829,-2.0836,-2.0842,-2.0847,0,0,0,0,0,-2.0124,-2.0184,-2.0188,-2.0208,-2.0316,-2.0393,-2.0407,-2.0436,-2.042,-2.0451,-2.0488,-2.0492,-2.0642,-2.0613,-2.0633,-2.067,-2.0819,-2.0824,-2.0828,-2.0833,-2.0841,-2.0847,0,0,0,0,0,0,-2.0121,-2.0193,-2.0198,-2.0282,-2.0331,-2.0395,-2.0436,-2.0443,-2.0498,-2.0496,-2.0529,-2.0544,-2.0621,-2.0653,-2.062,-2.075,-2.0729,-2.0738,-2.0726,-2.0734,-2.0739,-2.073,-2.0615,0,0,0,0,0,-2.013,-2.0186,-2.0247,-2.0314,-2.0339,-2.0383,-2.0417,-2.0435,-2.0488,-2.0509,-2.0551,-2.0603,-2.0661,-2.0699,-2.0756,-2.084,-2.0855,-2.0875,-2.0881,-2.0885,-2.0893,-2.0939,-2.0949,-2.0846,-2.0846,-2.0846,0,0,-2.015,-2.0196,-2.023,-2.0315,-2.0355,-2.0413,-2.04,-2.0462,-2.0505,-2.0518,-2.0595,-2.0628,-2.0687,-2.0768,-2.0806,-2.0798,-2.0924,-2.0891,-2.0894,-2.09,-2.0945,-2.0955,-2.0963,-2.085,-2.0849,-2.0848,0,0,-2.0215,-2.0255,-2.0316,-2.0357,-2.0418,-2.0446,-2.0461,-2.0524,-2.0546,-2.0623,-2.0635,-2.0686,-2.0786,-2.0828,-2.0862,-2.0942,-2.0948,-2.096,-2.0989,-2.1034,-2.1043,-2.105,-2.1078,-2.1088,-2.0967,-2.0967,-2.0967,0,-2.0231,-2.0318,-2.0347,-2.0408,-2.0445,-2.0459,-2.0521,-2.0559,-2.0636,-2.0661,-2.065,-2.0775,-2.0816,-2.0908,-2.0927,-2.0954,-2.0972,-2.0952,-2.1039,-2.1047,-2.1054,-2.1081,-2.1092,-2.0968,-2.0968,-2.0968,-2.0967,0,-2.0336,-2.0396,-2.0437,-2.0511,-2.0552,-2.0614,-2.0651,-2.069,-2.0704,-2.0734,-2.0812,-2.0861,-2.0929,-2.0951,-2.0966,-2.1045,-2.1037,-2.1032,-2.1012,-2.1064,-2.1091,-2.1101,-2.0969,-2.0969,-2.0969,-2.0968,0,0,-2.0403,-2.0491,-2.0506,-2.0539,-2.0607,-2.0654,-2.0715,-2.078,-2.0813,-2.0865,-2.0918,-2.1002,-2.0997,-2.1036,-2.1055,-2.1095,-2.1154,-2.1085,-2.1087,-2.1096,-2.1244,-2.1248,-2.126,-2.1158,-2.116,-2.1162,-2.1239,0,-2.0476,-2.0586,-2.0613,-2.0707,-2.0763,-2.0777,-2.083,-2.0878,-2.0907,-2.0959,-2.0991,-2.105,-2.1039,-2.1063,-2.1102,-2.1139,-2.1185,-2.1133,-2.1208,-2.121,-2.1193,-2.1273,-2.1278,-2.1348,-2.125,-2.1251,-2.1253,0,-2.0576,-2.063,-2.0729,-2.0789,-2.0814,-2.0861,-2.0923,-2.0972,-2.1026,-2.1045,-2.1087,-2.1102,-2.1167,-2.1143,-2.1232,-2.1197,-2.1229,-2.1251,-2.1254,-2.1263,-2.1235,-2.1284,-2.1371,-2.1382,-2.1269,-2.1268,-2.1267,0,-2.0615,-2.0713,-2.0785,-2.0812,-2.0884,-2.0918,-2.0949,-2.1001,-2.1039,-2.1092,-2.1117,-2.1178,-2.1211,-2.1258,-2.1288,-2.1268,-2.1375,-2.1354,-2.1393,-2.1392,-2.1415,-2.1413,-2.1509,-2.1435,-2.1435,-2.1435,-2.1434,0,-2.0694,-2.0754,-2.0803,-2.0847,-2.0915,-2.0946,-2.1012,-2.1044,-2.109,-2.1141,-2.1156,-2.1204,-2.1241,-2.1294,-2.1318,-2.1388,-2.1403,-2.142,-2.1426,-2.1419,-2.1417,-2.1441,-2.1437,-2.1438,-2.1437,-2.1436,-2.1436,0,-2.075,-2.0785,-2.0864,-2.0926,-2.0942,-2.099,-2.1042,-2.1086,-2.1115,-2.1179,-2.1196,-2.1242,-2.1304,-2.1339,-2.1418,-2.1435,-2.1513,-2.1516,-2.1495,-2.1497,-2.1534,-2.153,-2.1649,-2.1666,-2.158,-2.1581,-2.1582,0,-2.0798,-2.0845,-2.0911,-2.0945,-2.0977,-2.1034,-2.1071,-2.1103,-2.1142,-2.1206,-2.1242,-2.1305,-2.1358,-2.1457,-2.1497,-2.1558,-2.1563,-2.16,-2.1572,-2.1563,-2.1563,-2.156,-2.1565,-2.1605,-2.1606,-2.1606,-2.1607,0,-2.0879,-2.0894,-2.0948,-2.1008,-2.1053,-2.1102,-2.115,-2.1178,-2.1217,-2.126,-2.1324,-2.1365,-2.1444,-2.1507,-2.157,-2.1603,-2.1612,-2.1615,-2.1627,-2.1621,-2.1606,-2.1615,-2.1508,-2.1612,-2.1612,-2.1611,-2.1611,-2.1611,-2.0933,-2.0975,-2.1028,-2.1087,-2.1127,-2.1172,-2.1215,-2.125,-2.1304,-2.1371,-2.1386,-2.1453,-2.1506,-2.1591,-2.1626,-2.1679,-2.1672,-2.1689,-2.1694,-2.1698,-2.1699,-2.1598,-2.169,-2.169,-2.169,-2.169,-2.169,0,-2.1015,-2.105,-2.1104,-2.1171,-2.1218,-2.1221,-2.1275,-2.1314,-2.1373,-2.1421,-2.1472,-2.1545,-2.1605,-2.165,-2.1712,-2.1746,-2.1751,-2.1761,-2.1759,-2.1766,-2.1702,-2.1685,-2.1756,-2.1756,-2.1756,-2.1756,-2.1756,-2.1756,-2.1064,-2.1135,-2.1156,-2.1247,-2.1281,-2.1347,-2.1377,-2.1418,-2.1456,-2.1537,-2.1588,-2.1616,-2.1663,-2.1728,-2.1784,-2.1796,-2.1818,-2.1827,-2.1839,-2.1778,-2.1771,-2.1764,-2.1749,-2.1832,-2.1832,-2.19,-2.19,-2.1901]}]]